Weather in Mugreyevo-Nikol'skoye

Russia / Ivanovo Oblast     56°37′53″N   42°14′06″E
temp.,
°C
wind,
m/s
gust,
m/s
humid.,
%
clouds,
%
prec.,
mm/h
press.,
hPa
HPBL,
m
19 september, sun
sun1900:00+2nne227791 0.0 102718
03:00+1ne2380100 0.0 102747
06:00+1ne2486100 0.0 102779
09:00+6ene456398 0.0 1027575
12:00+9e3447100 0.0 10271159
15:00+9ene4445100 0.0 10261156
18:00+6ne3565100 0.0 1026101
21:00+4ene31072100 0.0 1026216
20 september, mon
mon2000:00+4ene31079100 0.0 1026301
03:00+3ene51279100 0.0 1026427
06:00+3e61374100 0.0 1026580
09:00+4e61367100 0.0 1026659
12:00+6e61160100 0.0 1025876
15:00+8e61156100 0.0 10241103
18:00+7e61156100 0.0 10241103
21:00+7e61156100 0.0 10241012
21 september, tue
tue2100:00+6e61355100 0.0 1023680
03:00+5e51362100 0.1 1022624
06:00+4e61486100 1.3 1021569
09:00+4e61588100 2.5 1021704
12:00+4ese61585100 0.8 1021657
15:00+6e61481100 1.0 1020742
18:00+7ese61376100 0.0 1020810
21:00+7e61375100 0.0 1019754
22 september, wed
wed2200:00+7e5126799 0.0 1019753
03:00+7e51267100 0.0 1018687
06:00+7e51270100 0.1 1017669
09:00+6e51389100 2.4 1018643
12:00+6e51291100 1.3 1019638
15:00+7e41188100 2.1 1020615
18:00+7ene3995100 0.9 1020361
21:00+8e31096100 2.1 1019527
23 september, thu
thu2300:00+8ene3896100 1.8 1019377
03:00+7e3797100 2.9 1019329
06:00+8e2598100 0.4 1018246
09:00+9e1397100 0.4 1018176
12:00+9e1499100 0.1 1018255
15:00+10ese2698100 0.2 1017362
18:00+10ese2698100 0.0 1017219
21:00+9e3897100 0.1 1016189